Chadron, NE

3:01 PM MDT on March 23, 2017 (GMT -0600)
Chadron Municipal

Weather History for KCDR - October, 2012

Change the Weather History Date:

Saturday, October 6, 2012

  Actual Average Record
Temperature  
Mean Temperature 31 °F 52 °F  
Max Temperature 40 °F 68 °F 93 °F (1975)
Min Temperature 22 °F 35 °F 6 °F (1952)
Degree Days  
Heating Degree Days 34 14  
Month to date heating degree days 109 76  
Since 1 July heating degree days 226 287  
Cooling Degree Days 0 0  
Month to date cooling degree days 0 0  
Year to date cooling degree days 1167 710  
Moisture  
Dew Point 28 °F    
Average Humidity 78    
Maximum Humidity 96    
Minimum Humidity 59    
Precipitation  
Precipitation T in 0.04 in 1.10 in (1962)
Month to date precipitation 0.19 0.32  
Year to date precipitation 6.67 15.92  
Sea Level Pressure  
Sea Level Pressure 30.40 in    
Wind  
Wind Speed 5 mph (North)    
Max Wind Speed 14 mph    
Max Gust Speed 16 mph    
Visibility 7 miles    
Events Snow    
T = Trace of Precipitation, MM = Missing Value Source: NWS Daily Summary

Daily Weather History Graph

Daily Weather History Graph

Search for Another Location

Airport or City:

Trip Planner

Search our weather history database for the weather conditions in past years. The results will help you decide how hot, cold, wet, or windy it might be!

Date:

Astronomy

Oct. 06, 2012 Rise Set
Actual Time 6:55 AM MDT 6:24 PM MDT
Civil Twilight 6:27 AM MDT 6:52 PM MDT
Nautical Twilight 5:54 AM MDT 7:24 PM MDT
Astronomical Twilight 5:21 AM MDT 7:57 PM MDT
Moon 10:35 PM MDT (10/6) 12:58 PM MDT (10/6)
Length of Visible Light 12h 24m
Length of Day
11h 28m
Waning Gibbous, 65% of the Moon is Illuminated
Oct 6
Waning Gibbous
Oct 8
Last Quarter
Oct 15
New
Oct 21
First Quarter
Oct 29
Full

Hourly Weather History & Observations

Time (MDT) Temp. Windchill Dew Point Humidity Pressure Visibility Wind Dir Wind Speed Gust Speed Precip Events Conditions
12:48 AM 32.0 °F - 30.2 °F 93% 30.35 in 6.0 mi Calm Calm - N/A   Overcast
12:53 AM 32.0 °F - 30.9 °F 96% 30.45 in 5.0 mi Calm Calm - N/A   Overcast
1:22 AM 32.0 °F - 30.2 °F 93% 30.35 in 3.0 mi Calm Calm - 0.00 in Snow Light Snow
1:34 AM 33.8 °F - 32.0 °F 93% 30.35 in 2.5 mi Calm Calm - 0.00 in Snow Light Snow
1:53 AM 33.1 °F - 32.0 °F 96% 30.45 in 3.0 mi Calm Calm - 0.00 in   Overcast
2:53 AM 33.1 °F - 32.0 °F 96% 30.45 in 4.0 mi Calm Calm - 0.00 in   Overcast
3:23 AM 33.8 °F - 32.0 °F 93% 30.34 in 5.0 mi Calm Calm - N/A   Overcast
3:39 AM 33.8 °F - 30.2 °F 87% 30.34 in 3.0 mi Calm Calm - 0.00 in Snow Light Snow
3:53 AM 33.1 °F - 32.0 °F 96% 30.43 in 1.8 mi Calm Calm - 0.00 in Snow Light Snow
4:00 AM 33.8 °F - 30.2 °F 87% 30.34 in 2.0 mi Calm Calm - 0.00 in Snow Light Snow
4:16 AM 33.8 °F - 32.0 °F 93% 30.34 in 1.8 mi Calm Calm - 0.00 in Snow Light Snow
4:28 AM 33.8 °F - 32.0 °F 93% 30.34 in 1.5 mi Calm Calm - 0.00 in Snow Light Snow
4:53 AM 33.1 °F 26.1 °F 30.9 °F 92% 30.44 in 1.8 mi NNE 8.1 mph - 0.00 in Snow Light Snow
5:01 AM 32.0 °F 23.6 °F 30.2 °F 93% 30.34 in 3.0 mi NNE 10.4 mph - 0.00 in   Overcast
5:20 AM 30.2 °F 21.9 °F 28.4 °F 93% 30.34 in 9.0 mi NNE 9.2 mph - 0.00 in   Overcast
5:30 AM 30.2 °F 22.6 °F 28.4 °F 93% 30.34 in 10.0 mi NNE 8.1 mph - 0.00 in   Overcast
5:39 AM 30.2 °F 24.3 °F 28.4 °F 93% 30.35 in 10.0 mi NE 5.8 mph - 0.00 in   Overcast
5:53 AM 30.9 °F 23.5 °F 28.0 °F 89% 30.45 in 10.0 mi NE 8.1 mph - 0.00 in   Overcast
6:08 AM 30.2 °F 25.4 °F 28.4 °F 93% 30.36 in 10.0 mi NE 4.6 mph - N/A   Overcast
6:17 AM 30.2 °F 24.3 °F 28.4 °F 93% 30.36 in 10.0 mi NE 5.8 mph - N/A   Overcast
6:31 AM 30.2 °F 25.4 °F 28.4 °F 93% 30.37 in 10.0 mi NE 4.6 mph - N/A   Overcast
6:53 AM 30.0 °F 23.2 °F 26.1 °F 85% 30.48 in 10.0 mi NE 6.9 mph - N/A   Overcast
8:53 AM 30.9 °F 24.3 °F 24.1 °F 76% 30.51 in 10.0 mi NE 6.9 mph - N/A   Mostly Cloudy
9:53 AM 33.1 °F 30.0 °F 24.1 °F 70% 30.52 in 6.0 mi NE 3.5 mph - N/A   Haze
10:43 AM 32.0 °F - 24.8 °F 75% 30.41 in 1.8 mi Calm Calm - 0.00 in Snow Light Snow
10:50 AM 33.8 °F - 26.6 °F 75% 30.41 in 2.5 mi Calm Calm - 0.00 in Snow Light Snow
10:53 AM 32.0 °F - 26.1 °F 79% 30.53 in 3.0 mi Calm Calm - 0.00 in   Haze
11:53 AM 35.1 °F - 27.0 °F 72% 30.51 in 10.0 mi Calm Calm - N/A   Overcast
12:16 PM 35.6 °F - 26.6 °F 70% 30.40 in 10.0 mi Calm Calm - N/A   Overcast
12:53 PM 37.0 °F 34.5 °F 28.9 °F 73% 30.48 in 10.0 mi NW 3.5 mph - N/A   Overcast
1:53 PM 37.0 °F - 28.0 °F 70% 30.46 in 10.0 mi Calm Calm - N/A   Overcast
2:30 PM 37.4 °F 34.9 °F 28.4 °F 70% 30.35 in 10.0 mi WNW 3.5 mph - N/A   Overcast
2:53 PM 37.9 °F 34.4 °F 27.0 °F 65% 30.44 in 10.0 mi WNW 4.6 mph - N/A   Overcast
3:53 PM 39.0 °F 34.8 °F 28.0 °F 65% 30.42 in 10.0 mi WSW 5.8 mph - N/A   Mostly Cloudy
4:53 PM 39.0 °F 32.3 °F 27.0 °F 62% 30.40 in 10.0 mi WSW 10.4 mph - N/A   Mostly Cloudy
5:53 PM 37.9 °F 32.7 °F 24.1 °F 57% 30.39 in 10.0 mi SW 6.9 mph - N/A   Clear
6:53 PM 32.0 °F 24.8 °F 25.0 °F 75% 30.40 in 10.0 mi SSW 8.1 mph - N/A   Clear
7:53 PM 30.9 °F 23.5 °F 25.0 °F 79% 30.40 in 10.0 mi South 8.1 mph - N/A   Clear
9:53 PM 27.0 °F 20.5 °F 23.0 °F 85% 30.39 in 10.0 mi WSW 5.8 mph - N/A   Clear
11:53 PM 21.9 °F 15.7 °F 19.9 °F 92% 30.35 in 8.0 mi WSW 4.6 mph - N/A   Clear